| time (UTC) | temp C | wind direction | speed KPH | gust KPH | rain 1hr cm | rain 24hr cm | rain mn cm | humidity % | barometer mb |
| 20260902024231 | 11 | 88 | 0.0 | 0.0 | 0.00 | 0.00 | 0.00 | 83 | 1023.1 |
| 20260902023724 | 11 | 88 | 0.0 | 0.0 | 0.00 | 0.00 | 0.00 | 83 | 1023.2 |
| 20260902023225 | 11 | 88 | 0.0 | 0.0 | 0.00 | 0.00 | 0.00 | 83 | 1023.0 |
| 20260902022718 | 11 | 88 | 0.0 | 0.0 | 0.00 | 0.00 | 0.00 | 83 | 1023.0 |
| 20260902022218 | 11 | 84 | 0.0 | 0.0 | 0.00 | 0.00 | 0.00 | 83 | 1023.1 |
| 20260902021722 | 11 | 84 | 0.0 | 0.0 | 0.00 | 0.00 | 0.00 | 83 | 1023.0 |
| 20260902021215 | 11 | 84 | 0.0 | 0.0 | 0.00 | 0.00 | 0.00 | 83 | 1023.0 |
| 20260902020729 | 11 | 84 | 0.0 | 0.0 | 0.00 | 0.00 | 0.00 | 83 | 1023.0 |
| 20260902020211 | 11 | 84 | 0.0 | 0.0 | 0.00 | 0.00 | 0.00 | 82 | 1022.8 |
| 20260902015719 | 11 | 84 | 0.0 | 0.0 | 0.00 | 0.00 | 0.00 | 82 | 1023.0 |
| 20260902014722 | 11 | 84 | 0.0 | 0.0 | 0.00 | 0.00 | 0.00 | 82 | 1023.0 |
| 20260902014225 | 11 | 84 | 0.0 | 0.0 | 0.00 | 0.00 | 0.00 | 82 | 1023.0 |
| 20260902013706 | 11 | 84 | 0.0 | 0.0 | 0.00 | 0.00 | 0.00 | 81 | 1023.0 |
| 20260902013214 | 11 | 84 | 0.0 | 0.0 | 0.00 | 0.00 | 0.00 | 81 | 1022.8 |
| 20260902012710 | 11 | 84 | 0.0 | 0.0 | 0.00 | 0.00 | 0.00 | 81 | 1023.0 |
| 20260902012218 | 11 | 84 | 0.0 | 0.0 | 0.00 | 0.00 | 0.00 | 81 | 1023.0 |
| 20260902011715 | 11 | 84 | 0.0 | 0.0 | 0.00 | 0.00 | 0.00 | 81 | 1023.1 |
| 20260902011217 | 11 | 84 | 0.0 | 0.0 | 0.00 | 0.00 | 0.00 | 81 | 1023.1 |
| 20260902010726 | 12 | 61 | 0.0 | 0.0 | 0.00 | 0.00 | 0.00 | 81 | 1023.2 |
| 20260902010217 | 12 | 61 | 0.0 | 0.0 | 0.00 | 0.00 | 0.00 | 81 | 1023.1 |
| 20260902005712 | 12 | 61 | 0.0 | 0.0 | 0.00 | 0.00 | 0.00 | 81 | 1023.2 |
| 20260902005230 | 12 | 20 | 0.0 | 0.0 | 0.00 | 0.00 | 0.00 | 81 | 1023.3 |
| 20260902004714 | 12 | 58 | 0.0 | 0.0 | 0.00 | 0.00 | 0.00 | 80 | 1023.3 |
| 20260902004216 | 12 | 58 | 0.0 | 0.0 | 0.00 | 0.00 | 0.00 | 80 | 1023.3 |
| 20260902003721 | 12 | 22 | 0.0 | 0.0 | 0.00 | 0.00 | 0.00 | 80 | 1023.3 |
| 20260902003225 | 12 | 11 | 0.0 | 0.0 | 0.00 | 0.00 | 0.00 | 80 | 1023.3 |
| 20260902002719 | 12 | 11 | 0.0 | 0.0 | 0.00 | 0.00 | 0.00 | 80 | 1023.3 |
| 20260902002212 | 12 | 11 | 0.0 | 0.0 | 0.00 | 0.00 | 0.00 | 80 | 1023.3 |
| 20260902001732 | 12 | 11 | 0.0 | 0.0 | 0.00 | 0.00 | 0.00 | 80 | 1023.3 |
| 20260902001216 | 12 | 11 | 0.0 | 0.0 | 0.00 | 0.00 | 0.00 | 80 | 1023.4 |
| 20260902000711 | 12 | 12 | 0.0 | 0.0 | 0.00 | 0.00 | 0.00 | 80 | 1023.5 |
| 20260902000215 | 12 | 12 | 0.0 | 0.0 | 0.00 | 0.00 | 0.00 | 81 | 1023.5 |
| 20260901235223 | 12 | 88 | 0.0 | 0.0 | 0.00 | 0.00 | 0.00 | 81 | 1023.5 |
| 20260901234731 | 12 | 88 | 0.0 | 0.0 | 0.00 | 0.00 | 0.00 | 80 | 1023.5 |
| 20260901234225 | 12 | 88 | 0.0 | 0.0 | 0.00 | 0.00 | 0.00 | 80 | 1023.6 |
| 20260901233707 | 12 | 88 | 0.0 | 0.0 | 0.00 | 0.00 | 0.00 | 79 | 1023.6 |
| 20260901233214 | 12 | 48 | 0.0 | 0.0 | 0.00 | 0.00 | 0.00 | 79 | 1023.5 |
| 20260901232220 | 12 | 52 | 0.0 | 0.0 | 0.00 | 0.00 | 0.00 | 79 | 1023.5 |
| 20260901231709 | 12 | 52 | 0.0 | 0.0 | 0.00 | 0.00 | 0.00 | 79 | 1023.5 |
| 20260901231219 | 12 | 50 | 0.0 | 0.0 | 0.00 | 0.00 | 0.00 | 79 | 1023.5 |
| 20260901230225 | 12 | 92 | 0.0 | 0.0 | 0.00 | 0.00 | 0.00 | 78 | 1023.6 |
| 20260901225717 | 12 | 31 | 0.0 | 0.0 | 0.00 | 0.00 | 0.00 | 78 | 1023.6 |
| 20260901225219 | 13 | 31 | 0.0 | 0.0 | 0.00 | 0.00 | 0.00 | 78 | 1023.5 |
| 20260901224709 | 13 | 104 | 0.0 | 0.0 | 0.00 | 0.00 | 0.00 | 77 | 1023.5 |
| 20260901223721 | 13 | 104 | 0.0 | 0.0 | 0.00 | 0.00 | 0.00 | 77 | 1023.5 |
| 20260901223229 | 13 | 113 | 0.0 | 0.0 | 0.00 | 0.00 | 0.00 | 77 | 1023.5 |
| 20260901222730 | 13 | 30 | 0.0 | 0.0 | 0.00 | 0.00 | 0.00 | 77 | 1023.5 |
| 20260901222218 | 13 | 109 | 0.0 | 0.0 | 0.00 | 0.00 | 0.00 | 76 | 1023.5 |
| 20260901221716 | 13 | 10 | 0.0 | 0.0 | 0.00 | 0.00 | 0.00 | 76 | 1023.5 |
| 20260901221211 | 13 | 321 | 0.0 | 0.0 | 0.00 | 0.00 | 0.00 | 76 | 1023.5 |
| 20260901220216 | 13 | 331 | 0.0 | 0.0 | 0.00 | 0.00 | 0.00 | 76 | 1023.5 |
| 20260901215713 | 13 | 312 | 0.0 | 0.0 | 0.00 | 0.00 | 0.00 | 76 | 1023.5 |
| 20260901215225 | 13 | 313 | 0.0 | 0.0 | 0.00 | 0.00 | 0.00 | 77 | 1023.6 |
| 20260901214715 | 13 | 313 | 0.0 | 0.0 | 0.00 | 0.00 | 0.00 | 77 | 1023.5 |
| 20260901213720 | 13 | 19 | 0.0 | 0.0 | 0.00 | 0.00 | 0.00 | 76 | 1023.6 |
| 20260901212726 | 13 | 22 | 0.0 | 0.0 | 0.00 | 0.00 | 0.00 | 77 | 1023.5 |
| 20260901212241 | 13 | 5 | 0.0 | 0.0 | 0.00 | 0.00 | 0.00 | 76 | 1023.5 |
| 20260901211729 | 13 | 5 | 0.0 | 0.0 | 0.00 | 0.00 | 0.00 | 77 | 1023.5 |
| 20260901211210 | 13 | 355 | 0.0 | 0.0 | 0.00 | 0.00 | 0.00 | 77 | 1023.5 |
| 20260901210228 | 13 | 355 | 0.0 | 0.0 | 0.00 | 0.00 | 0.00 | 77 | 1023.6 |
| 20260901205722 | 13 | 355 | 0.0 | 0.0 | 0.00 | 0.00 | 0.00 | 76 | 1023.6 |
| 20260901205222 | 13 | 355 | 0.0 | 0.0 | 0.00 | 0.00 | 0.00 | 76 | 1023.6 |
| 20260901204216 | 13 | 355 | 0.0 | 0.0 | 0.00 | 0.00 | 0.00 | 76 | 1023.7 |
| 20260901203728 | 13 | 342 | 0.0 | 0.0 | 0.00 | 0.00 | 0.00 | 75 | 1023.6 |
| 20260901203217 | 13 | 342 | 0.0 | 0.0 | 0.00 | 0.00 | 0.00 | 75 | 1023.6 |
| 20260901202228 | 13 | 331 | 0.0 | 0.0 | 0.00 | 0.00 | 0.00 | 75 | 1023.6 |
| 20260901201217 | 13 | 342 | 0.0 | 0.0 | 0.00 | 0.00 | 0.00 | 75 | 1023.6 |
| 20260901200719 | 14 | 9 | 0.0 | 0.0 | 0.00 | 0.00 | 0.00 | 74 | 1023.7 |
| 20260901200223 | 14 | 9 | 0.0 | 0.0 | 0.00 | 0.00 | 0.00 | 74 | 1023.6 |
| 20260901195208 | 14 | 9 | 0.0 | 0.0 | 0.00 | 0.00 | 0.00 | 73 | 1023.6 |
| 20260901194716 | 14 | 9 | 0.0 | 0.0 | 0.00 | 0.00 | 0.00 | 73 | 1023.6 |
| 20260901194216 | 14 | 9 | 0.0 | 0.0 | 0.00 | 0.00 | 0.00 | 73 | 1023.6 |
| 20260901193725 | 14 | 9 | 0.0 | 0.0 | 0.00 | 0.00 | 0.00 | 73 | 1023.5 |
| 20260901192718 | 15 | 14 | 0.0 | 0.0 | 0.00 | 0.00 | 0.00 | 73 | 1023.5 |
| 20260901192226 | 15 | 14 | 0.0 | 0.0 | 0.00 | 0.00 | 0.00 | 72 | 1023.5 |
| 20260901191721 | 15 | 355 | 0.0 | 0.0 | 0.00 | 0.00 | 0.00 | 71 | 1023.6 |
| 20260901191221 | 15 | 41 | 0.0 | 0.0 | 0.00 | 0.00 | 0.00 | 72 | 1023.5 |
| 20260901190719 | 15 | 43 | 0.0 | 0.0 | 0.00 | 0.00 | 0.00 | 71 | 1023.4 |
| 20260901190228 | 15 | 0 | 0.0 | 0.0 | 0.00 | 0.00 | 0.00 | 71 | 1023.4 |
| 20260901185722 | 15 | 5 | 0.0 | 8.0 | 0.00 | 0.00 | 0.00 | 70 | 1023.4 |
| 20260901185231 | 15 | 16 | 0.0 | 9.7 | 0.00 | 0.00 | 0.00 | 69 | 1023.3 |
| 20260901184217 | 16 | 347 | 1.6 | 9.7 | 0.00 | 0.00 | 0.00 | 68 | 1023.2 |
| 20260901183709 | 16 | 345 | 0.0 | 0.0 | 0.00 | 0.00 | 0.00 | 68 | 1023.2 |
| 20260901183212 | 16 | 342 | 0.0 | 0.0 | 0.00 | 0.00 | 0.00 | 68 | 1023.1 |
| 20260901182712 | 16 | 350 | 0.0 | 0.0 | 0.00 | 0.00 | 0.00 | 68 | 1023.1 |
| 20260901182222 | 16 | 355 | 0.0 | 0.0 | 0.00 | 0.00 | 0.00 | 68 | 1023.0 |
| 20260901181724 | 16 | 340 | 0.0 | 3.2 | 0.00 | 0.00 | 0.00 | 67 | 1023.0 |
| 20260901181216 | 17 | 16 | 0.0 | 11.3 | 0.00 | 0.00 | 0.00 | 66 | 1023.0 |
| 20260901180730 | 17 | 349 | 1.6 | 11.3 | 0.00 | 0.00 | 0.00 | 66 | 1022.8 |
| 20260901180215 | 17 | 11 | 6.4 | 11.3 | 0.00 | 0.00 | 0.00 | 66 | 1022.8 |
| 20260901175722 | 17 | 5 | 8.0 | 11.3 | 0.00 | 0.00 | 0.00 | 65 | 1022.8 |
| 20260901174725 | 17 | 338 | 0.0 | 0.0 | 0.00 | 0.00 | 0.00 | 64 | 1022.8 |
| 20260901173719 | 18 | 348 | 0.0 | 0.0 | 0.00 | 0.00 | 0.00 | 63 | 1022.7 |
| 20260901173218 | 18 | 331 | 0.0 | 0.0 | 0.00 | 0.00 | 0.00 | 63 | 1022.7 |
| 20260901172713 | 18 | 342 | 0.0 | 0.0 | 0.00 | 0.00 | 0.00 | 63 | 1022.7 |
| 20260901172229 | 18 | 336 | 0.0 | 0.0 | 0.00 | 0.00 | 0.00 | 62 | 1022.7 |
| 20260901171722 | 18 | 321 | 0.0 | 0.0 | 0.00 | 0.00 | 0.00 | 61 | 1022.7 |
| 20260901171229 | 19 | 340 | 0.0 | 0.0 | 0.00 | 0.00 | 0.00 | 60 | 1022.7 |
| 20260901170723 | 19 | 325 | 0.0 | 0.0 | 0.00 | 0.00 | 0.00 | 59 | 1022.6 |
| 20260901170223 | 20 | 328 | 0.0 | 0.0 | 0.00 | 0.00 | 0.00 | 57 | 1022.7 |
| 20260901165718 | 20 | 342 | 0.0 | 0.0 | 0.00 | 0.00 | 0.00 | 56 | 1022.8 |
| 20260901165216 | 20 | 334 | 0.0 | 0.0 | 0.00 | 0.00 | 0.00 | 56 | 1023.0 |
| 20260901164719 | 20 | 309 | 0.0 | 0.0 | 0.00 | 0.00 | 0.00 | 55 | 1022.8 |
| 20260901164231 | 20 | 333 | 0.0 | 0.0 | 0.00 | 0.00 | 0.00 | 52 | 1023.0 |
| 20260901163717 | 20 | 327 | 0.0 | 0.0 | 0.00 | 0.00 | 0.00 | 53 | 1023.0 |
| 20260901163223 | 20 | 304 | 0.0 | 0.0 | 0.00 | 0.00 | 0.00 | 52 | 1023.0 |
| 20260901162721 | 20 | 324 | 0.0 | 0.0 | 0.00 | 0.00 | 0.00 | 56 | 1023.0 |
| 20260901162223 | 20 | 319 | 0.0 | 0.0 | 0.00 | 0.00 | 0.00 | 55 | 1023.0 |
| 20260901161717 | 20 | 317 | 0.0 | 0.0 | 0.00 | 0.00 | 0.00 | 53 | 1023.0 |
| 20260901160728 | 21 | 302 | 0.0 | 0.0 | 0.00 | 0.00 | 0.00 | 52 | 1023.0 |
| 20260901160220 | 21 | 313 | 0.0 | 9.7 | 0.00 | 0.00 | 0.00 | 51 | 1023.0 |
| 20260901155724 | 21 | 341 | 1.6 | 9.7 | 0.00 | 0.00 | 0.00 | 48 | 1023.0 |
| 20260901155220 | 21 | 303 | 4.8 | 9.7 | 0.00 | 0.00 | 0.00 | 49 | 1022.8 |
| 20260901154728 | 21 | 307 | 3.2 | 9.7 | 0.00 | 0.00 | 0.00 | 47 | 1023.0 |
| 20260901154214 | 21 | 316 | 1.6 | 0.0 | 0.00 | 0.00 | 0.00 | 50 | 1023.0 |
| 20260901153716 | 21 | 277 | 0.0 | 6.4 | 0.00 | 0.00 | 0.00 | 49 | 1023.0 |
| 20260901153214 | 21 | 249 | 0.0 | 8.0 | 0.00 | 0.00 | 0.00 | 49 | 1023.0 |
| 20260901152211 | 21 | 340 | 4.8 | 14.5 | 0.00 | 0.00 | 0.00 | 46 | 1023.0 |
| 20260901151738 | 21 | 258 | 3.2 | 16.1 | 0.00 | 0.00 | 0.00 | 45 | 1022.8 |
| 20260901151245 | 21 | 9 | 4.8 | 17.7 | 0.00 | 0.00 | 0.00 | 46 | 1023.0 |
| 20260901150726 | 21 | 342 | 6.4 | 17.7 | 0.00 | 0.00 | 0.00 | 47 | 1023.0 |
| 20260901150225 | 22 | 331 | 3.2 | 14.5 | 0.00 | 0.00 | 0.00 | 47 | 1023.0 |
| 20260901145725 | 21 | 300 | 3.2 | 14.5 | 0.00 | 0.00 | 0.00 | 47 | 1023.0 |
| 20260901145229 | 22 | 318 | 4.8 | 14.5 | 0.00 | 0.00 | 0.00 | 47 | 1023.0 |
| 20260901144223 | 22 | 247 | 0.0 | 6.4 | 0.00 | 0.00 | 0.00 | 47 | 1023.0 |
| 20260901143718 | 22 | 61 | 0.0 | 16.1 | 0.00 | 0.00 | 0.00 | 46 | 1023.0 |
| 20260901143222 | 21 | 249 | 3.2 | 16.1 | 0.00 | 0.00 | 0.00 | 47 | 1023.0 |
| 20260901142719 | 21 | 262 | 8.0 | 16.1 | 0.00 | 0.00 | 0.00 | 46 | 1023.0 |
| 20260901140718 | 21 | 203 | 8.0 | 14.5 | 0.00 | 0.00 | 0.00 | 47 | 1023.0 |
| 20260901140218 | 21 | 245 | 4.8 | 14.5 | 0.00 | 0.00 | 0.00 | 46 | 1023.1 |
| 20260901135724 | 21 | 267 | 3.2 | 12.9 | 0.00 | 0.00 | 0.00 | 47 | 1023.1 |
| 20260901135217 | 21 | 314 | 6.4 | 24.1 | 0.00 | 0.00 | 0.00 | 47 | 1023.1 |
| 20260901134213 | 21 | 323 | 4.8 | 24.1 | 0.00 | 0.00 | 0.00 | 46 | 1023.2 |
| 20260901133716 | 21 | 55 | 4.8 | 17.7 | 0.00 | 0.00 | 0.00 | 48 | 1023.2 |
| 20260901133211 | 21 | 307 | 4.8 | 20.9 | 0.00 | 0.00 | 0.00 | 48 | 1023.3 |
| 20260901132722 | 21 | 323 | 6.4 | 20.9 | 0.00 | 0.00 | 0.00 | 46 | 1023.3 |
| 20260901132209 | 22 | 300 | 4.8 | 20.9 | 0.00 | 0.00 | 0.00 | 45 | 1023.3 |
| 20260901131727 | 22 | 297 | 3.2 | 16.1 | 0.00 | 0.00 | 0.00 | 44 | 1023.2 |
| 20260901130730 | 22 | 277 | 4.8 | 14.5 | 0.00 | 0.00 | 0.00 | 47 | 1023.3 |
| 20260901130218 | 21 | 297 | 3.2 | 14.5 | 0.00 | 0.00 | 0.00 | 48 | 1023.3 |
| 20260901125727 | 21 | 279 | 6.4 | 14.5 | 0.00 | 0.00 | 0.00 | 48 | 1023.4 |
| 20260901125222 | 21 | 327 | 4.8 | 11.3 | 0.00 | 0.00 | 0.00 | 50 | 1023.4 |
| 20260901123724 | 20 | 294 | 1.6 | 16.1 | 0.00 | 0.00 | 0.00 | 47 | 1023.5 |
| 20260901123217 | 21 | 311 | 3.2 | 17.7 | 0.00 | 0.00 | 0.00 | 47 | 1023.6 |
| 20260901122220 | 21 | 268 | 6.4 | 17.7 | 0.00 | 0.00 | 0.00 | 48 | 1023.6 |
| 20260901121729 | 21 | 68 | 6.4 | 17.7 | 0.00 | 0.00 | 0.00 | 48 | 1023.6 |
| 20260901121223 | 21 | 313 | 1.6 | 16.1 | 0.00 | 0.00 | 0.00 | 48 | 1023.6 |
| 20260901120724 | 21 | 355 | 3.2 | 17.7 | 0.00 | 0.00 | 0.00 | 48 | 1023.6 |
| 20260901120220 | 21 | 350 | 4.8 | 17.7 | 0.00 | 0.00 | 0.00 | 48 | 1023.7 |
| 20260901115724 | 20 | 278 | 6.4 | 17.7 | 0.00 | 0.00 | 0.00 | 48 | 1023.7 |
| 20260901115223 | 20 | 333 | 4.8 | 17.7 | 0.00 | 0.00 | 0.00 | 48 | 1023.7 |
| 20260901114722 | 21 | 281 | 4.8 | 17.7 | 0.00 | 0.00 | 0.00 | 47 | 1023.7 |
| 20260901114222 | 21 | 74 | 6.4 | 17.7 | 0.00 | 0.00 | 0.00 | 46 | 1023.8 |
| 20260901113726 | 21 | 280 | 3.2 | 17.7 | 0.00 | 0.00 | 0.00 | 47 | 1023.8 |
| 20260901113207 | 20 | 296 | 3.2 | 17.7 | 0.00 | 0.00 | 0.00 | 47 | 1023.8 |
| 20260901112728 | 20 | 328 | 4.8 | 17.7 | 0.00 | 0.00 | 0.00 | 46 | 1023.8 |
| 20260901111722 | 20 | 338 | 3.2 | 17.7 | 0.00 | 0.00 | 0.00 | 47 | 1023.8 |
| 20260901111221 | 20 | 322 | 6.4 | 17.7 | 0.00 | 0.00 | 0.00 | 50 | 1023.9 |
| 20260901110723 | 20 | 329 | 6.4 | 14.5 | 0.00 | 0.00 | 0.00 | 48 | 1023.8 |
| 20260901110225 | 20 | 305 | 3.2 | 19.3 | 0.00 | 0.00 | 0.00 | 50 | 1023.8 |
| 20260901105722 | 19 | 286 | 4.8 | 19.3 | 0.00 | 0.00 | 0.00 | 51 | 1023.8 |
| 20260901105217 | 19 | 290 | 8.0 | 19.3 | 0.00 | 0.00 | 0.00 | 49 | 1023.9 |
| 20260901104717 | 20 | 333 | 8.0 | 20.9 | 0.00 | 0.00 | 0.00 | 48 | 1024.0 |
| 20260901104219 | 20 | 290 | 4.8 | 20.9 | 0.00 | 0.00 | 0.00 | 52 | 1024.0 |
| 20260901103226 | 20 | 280 | 3.2 | 17.7 | 0.00 | 0.00 | 0.00 | 53 | 1024.0 |
| 20260901102209 | 20 | 317 | 6.4 | 19.3 | 0.00 | 0.00 | 0.00 | 55 | 1024.1 |
| 20260901101729 | 20 | 306 | 4.8 | 17.7 | 0.00 | 0.00 | 0.00 | 56 | 1024.1 |
| 20260901101209 | 20 | 244 | 1.6 | 11.3 | 0.00 | 0.00 | 0.00 | 57 | 1024.1 |
| 20260901100240 | 19 | 206 | 0.0 | 17.7 | 0.00 | 0.00 | 0.00 | 57 | 1024.1 |
| 20260901095722 | 18 | 205 | 1.6 | 17.7 | 0.00 | 0.00 | 0.00 | 58 | 1024.0 |
| 20260901095228 | 18 | 55 | 3.2 | 17.7 | 0.00 | 0.00 | 0.00 | 57 | 1024.1 |
| 20260901094728 | 19 | 300 | 3.2 | 11.3 | 0.00 | 0.00 | 0.00 | 59 | 1024.1 |
| 20260901094222 | 19 | 306 | 1.6 | 0.0 | 0.00 | 0.00 | 0.00 | 59 | 1024.1 |
| 20260901093710 | 18 | 323 | 0.0 | 9.7 | 0.00 | 0.00 | 0.00 | 61 | 1024.1 |
| 20260901093225 | 18 | 282 | 0.0 | 9.7 | 0.00 | 0.00 | 0.00 | 61 | 1024.1 |
| 20260901092722 | 18 | 325 | 1.6 | 16.1 | 0.00 | 0.00 | 0.00 | 61 | 1024.1 |
| 20260901092218 | 18 | 327 | 4.8 | 16.1 | 0.00 | 0.00 | 0.00 | 61 | 1024.1 |
| 20260901091724 | 18 | 329 | 6.4 | 16.1 | 0.00 | 0.00 | 0.00 | 61 | 1024.1 |
| 20260901091214 | 18 | 309 | 4.8 | 12.9 | 0.00 | 0.00 | 0.00 | 60 | 1024.1 |
| 20260901090707 | 18 | 78 | 1.6 | 12.9 | 0.00 | 0.00 | 0.00 | 60 | 1024.1 |
| 20260901090228 | 18 | 289 | 1.6 | 16.1 | 0.00 | 0.00 | 0.00 | 63 | 1024.0 |
| 20260901085219 | 18 | 342 | 6.4 | 16.1 | 0.00 | 0.00 | 0.00 | 61 | 1024.0 |
| 20260901084720 | 18 | 355 | 4.8 | 11.3 | 0.00 | 0.00 | 0.00 | 62 | 1024.0 |
| 20260901084217 | 18 | 173 | 3.2 | 11.3 | 0.00 | 0.00 | 0.00 | 62 | 1024.0 |
| 20260901083712 | 18 | 332 | 3.2 | 11.3 | 0.00 | 0.00 | 0.00 | 62 | 1024.0 |
| 20260901083230 | 18 | 0 | 1.6 | 6.4 | 0.00 | 0.00 | 0.00 | 64 | 1024.1 |
| 20260901082713 | 17 | 319 | 1.6 | 11.3 | 0.00 | 0.00 | 0.00 | 68 | 1024.0 |
| 20260901082211 | 17 | 253 | 3.2 | 11.3 | 0.00 | 0.00 | 0.00 | 68 | 1024.0 |
| 20260901081725 | 17 | 348 | 1.6 | 4.8 | 0.00 | 0.00 | 0.00 | 69 | 1024.0 |
| 20260901081219 | 17 | 239 | 0.0 | 0.0 | 0.00 | 0.00 | 0.00 | 72 | 1024.0 |
| 20260901080722 | 17 | 312 | 0.0 | 0.0 | 0.00 | 0.00 | 0.00 | 75 | 1023.9 |
| 20260901080219 | 16 | 172 | 0.0 | 0.0 | 0.00 | 0.00 | 0.00 | 75 | 1023.8 |
| 20260901075724 | 16 | 135 | 0.0 | 0.0 | 0.00 | 0.00 | 0.00 | 77 | 1023.8 |
| 20260901075221 | 16 | 172 | 0.0 | 0.0 | 0.00 | 0.00 | 0.00 | 78 | 1023.9 |
| 20260901074710 | 16 | 152 | 0.0 | 0.0 | 0.00 | 0.00 | 0.00 | 79 | 1023.9 |
| 20260901074214 | 15 | 151 | 0.0 | 0.0 | 0.00 | 0.00 | 0.00 | 79 | 1023.9 |
| 20260901073215 | 15 | 142 | 0.0 | 0.0 | 0.00 | 0.00 | 0.00 | 81 | 1023.7 |
| 20260901072722 | 15 | 182 | 0.0 | 0.0 | 0.00 | 0.00 | 0.00 | 80 | 1023.7 |
| 20260901072221 | 15 | 167 | 0.0 | 0.0 | 0.00 | 0.00 | 0.00 | 81 | 1023.7 |
| 20260901071751 | 15 | 54 | 0.0 | 0.0 | 0.00 | 0.00 | 0.00 | 82 | 1023.8 |
| 20260901071230 | 15 | 0 | 0.0 | 0.0 | 0.00 | 0.00 | 0.00 | 83 | 1023.8 |
| 20260901070726 | 14 | 0 | 0.0 | 0.0 | 0.00 | 0.00 | 0.00 | 85 | 1023.8 |
| 20260901070213 | 14 | 5 | 0.0 | 0.0 | 0.00 | 0.00 | 0.00 | 85 | 1023.8 |
| 20260901065719 | 13 | 5 | 0.0 | 0.0 | 0.00 | 0.00 | 0.00 | 86 | 1023.7 |
| 20260901065215 | 13 | 5 | 0.0 | 0.0 | 0.00 | 0.00 | 0.00 | 87 | 1023.8 |
| 20260901064716 | 13 | 5 | 0.0 | 0.0 | 0.00 | 0.00 | 0.00 | 87 | 1023.8 |
| 20260901064220 | 13 | 5 | 0.0 | 0.0 | 0.00 | 0.00 | 0.00 | 88 | 1023.8 |
| 20260901063711 | 12 | 5 | 0.0 | 0.0 | 0.00 | 0.00 | 0.00 | 89 | 1023.8 |
| 20260901063222 | 12 | 5 | 0.0 | 0.0 | 0.00 | 0.00 | 0.00 | 89 | 1023.8 |
| 20260901062725 | 12 | 5 | 0.0 | 0.0 | 0.00 | 0.00 | 0.00 | 88 | 1023.8 |
| 20260901062225 | 12 | 5 | 0.0 | 0.0 | 0.00 | 0.00 | 0.00 | 88 | 1023.7 |
| 20260901061219 | 12 | 5 | 0.0 | 0.0 | 0.00 | 0.00 | 0.00 | 89 | 1023.7 |
| 20260901060729 | 12 | 5 | 0.0 | 0.0 | 0.00 | 0.00 | 0.00 | 88 | 1023.7 |
| 20260901060232 | 12 | 69 | 0.0 | 0.0 | 0.00 | 0.00 | 0.00 | 89 | 1023.7 |
| 20260901055706 | 12 | 70 | 0.0 | 0.0 | 0.00 | 0.00 | 0.00 | 88 | 1023.6 |
| 20260901055216 | 12 | 70 | 0.0 | 0.0 | 0.00 | 0.00 | 0.00 | 88 | 1023.6 |
| 20260901054725 | 12 | 70 | 0.0 | 0.0 | 0.00 | 0.00 | 0.00 | 88 | 1023.5 |
| 20260901054219 | 12 | 70 | 0.0 | 0.0 | 0.00 | 0.00 | 0.00 | 88 | 1023.5 |
| 20260901053721 | 12 | 70 | 0.0 | 0.0 | 0.00 | 0.00 | 0.00 | 88 | 1023.5 |
| 20260901053215 | 12 | 70 | 0.0 | 0.0 | 0.00 | 0.00 | 0.00 | 87 | 1023.5 |
| 20260901052221 | 12 | 346 | 0.0 | 0.0 | 0.00 | 0.00 | 0.00 | 87 | 1023.4 |
| 20260901051722 | 12 | 346 | 0.0 | 0.0 | 0.00 | 0.00 | 0.00 | 87 | 1023.4 |
| 20260901051230 | 12 | 346 | 0.0 | 0.0 | 0.00 | 0.00 | 0.00 | 86 | 1023.4 |
| 20260901050735 | 12 | 346 | 0.0 | 0.0 | 0.00 | 0.00 | 0.00 | 86 | 1023.3 |
| 20260901045716 | 12 | 346 | 0.0 | 0.0 | 0.00 | 0.00 | 0.00 | 86 | 1023.3 |
| 20260901043713 | 12 | 346 | 0.0 | 0.0 | 0.00 | 0.00 | 0.00 | 86 | 1023.3 |
| 20260901043221 | 12 | 346 | 0.0 | 0.0 | 0.00 | 0.00 | 0.00 | 86 | 1023.3 |
| 20260901042718 | 12 | 346 | 0.0 | 0.0 | 0.00 | 0.00 | 0.00 | 86 | 1023.3 |
| 20260901042230 | 12 | 346 | 0.0 | 0.0 | 0.00 | 0.00 | 0.00 | 86 | 1023.3 |
| 20260901041716 | 12 | 346 | 0.0 | 0.0 | 0.00 | 0.00 | 0.00 | 86 | 1023.4 |
| 20260901041223 | 12 | 346 | 0.0 | 0.0 | 0.00 | 0.00 | 0.00 | 86 | 1023.4 |
| 20260901040716 | 12 | 346 | 0.0 | 0.0 | 0.00 | 0.00 | 0.00 | 86 | 1023.3 |
| 20260901035730 | 12 | 346 | 0.0 | 0.0 | 0.00 | 0.00 | 0.00 | 86 | 1023.3 |
| 20260901035226 | 12 | 346 | 0.0 | 0.0 | 0.00 | 0.00 | 0.00 | 86 | 1023.3 |
| 20260901034718 | 12 | 346 | 0.0 | 0.0 | 0.00 | 0.00 | 0.00 | 86 | 1023.3 |
| 20260901034231 | 12 | 346 | 0.0 | 0.0 | 0.00 | 0.00 | 0.00 | 86 | 1023.3 |
| 20260901033723 | 12 | 346 | 0.0 | 0.0 | 0.00 | 0.00 | 0.00 | 86 | 1023.3 |
| 20260901033212 | 12 | 346 | 0.0 | 0.0 | 0.00 | 0.00 | 0.00 | 86 | 1023.3 |
| 20260901032723 | 12 | 346 | 0.0 | 0.0 | 0.00 | 0.00 | 0.00 | 85 | 1023.3 |
| 20260901032216 | 12 | 346 | 0.0 | 0.0 | 0.00 | 0.00 | 0.00 | 85 | 1023.3 |
| 20260901031718 | 12 | 346 | 0.0 | 0.0 | 0.00 | 0.00 | 0.00 | 85 | 1023.3 |
| 20260901031214 | 12 | 346 | 0.0 | 0.0 | 0.00 | 0.00 | 0.00 | 85 | 1023.3 |
| 20260901030727 | 12 | 346 | 0.0 | 0.0 | 0.00 | 0.00 | 0.00 | 85 | 1023.3 |
| 20260901030218 | 12 | 346 | 0.0 | 0.0 | 0.00 | 0.00 | 0.00 | 85 | 1023.3 |
| 20260901025714 | 12 | 346 | 0.0 | 0.0 | 0.00 | 0.00 | 0.00 | 85 | 1023.3 |
| 20260901024726 | 13 | 346 | 0.0 | 0.0 | 0.00 | 0.00 | 0.00 | 85 | 1023.4 |